Date String (YYYY-MM-DD hh:mm:ss) UTC,Instrument flags,Ambient pressure (hPa),Sample flow (lpm),Bypass flow (lpm),Sample temperature (°C),Ambient temperature (°C),ASC tube jacket temperature (°C),LED temperature (°C),Box temperature (°C),Sample RH (%),Span deviation,Mass concentration (μg/m³),Mass concentration (μg/m³),Mass concentration (μg/m³)
DateTimeUTC,F1_M11,P_M11,Q1_M11,Q2_M11,T1_M11,T2_M11,T3_M11,T4_M11,T5_M11,U1_M11,ZSPAN_M11,X0_M11,X2_M11,X1_M11
2021-11-26 23:00:00,,0825.5,4.99,0.00,30.0,29.1,00.0,39.0,31.8,07.4,0000.0,0003.72,0001.19,0000.76
2021-11-26 23:01:00,,0825.5,5.01,0.00,30.0,29.2,00.0,39.0,31.8,07.4,0000.0,0003.87,0001.25,0000.79
2021-11-26 23:02:00,,0825.5,5.00,0.00,30.1,29.2,00.0,39.0,31.8,07.4,0000.0,0003.89,0001.30,0000.81
2021-11-26 23:03:00,,0825.5,5.00,0.00,30.1,29.2,00.0,39.0,31.9,07.4,0000.0,0003.96,0001.33,0000.84
2021-11-26 23:04:00,,0825.5,5.01,0.00,30.1,29.2,00.0,39.0,31.8,07.4,0000.0,0004.09,0001.38,0000.86
2021-11-26 23:05:00,,0825.5,4.99,0.00,30.1,29.3,00.0,39.0,31.9,07.4,0000.0,0003.26,0001.37,0000.88
2021-11-26 23:06:00,,0825.5,5.00,0.00,30.1,29.3,00.0,39.1,31.9,07.4,0000.0,0002.54,0001.36,0000.88
2021-11-26 23:07:00,,0825.5,5.01,0.00,30.1,29.3,00.0,39.1,31.9,07.4,0000.0,0002.49,0001.37,0000.89
2021-11-26 23:08:00,,0825.5,5.00,0.00,30.1,29.3,00.0,39.1,31.9,07.4,0000.0,0002.49,0001.37,0000.89
2021-11-26 23:09:00,,0825.5,4.99,0.00,30.2,29.4,00.0,39.1,31.9,07.4,0000.0,0002.49,0001.38,0000.92
2021-11-26 23:10:00,,0825.4,5.02,0.00,30.2,29.4,00.0,39.1,31.9,07.4,0000.0,0004.32,0001.40,0000.92
2021-11-26 23:11:00,,0825.5,4.99,0.00,30.2,29.4,00.0,39.1,31.9,07.4,0000.0,0005.09,0001.47,0000.94
2021-11-26 23:12:00,,0825.4,5.01,0.00,30.2,29.4,00.0,39.1,32.0,07.4,0000.0,0004.85,0001.42,0000.95
2021-11-26 23:13:00,,0825.5,4.99,0.00,30.2,29.4,00.0,39.1,32.0,07.4,0000.0,0004.86,0001.40,0000.96
2021-11-26 23:14:00,,0825.5,4.99,0.00,30.3,29.4,00.0,39.2,32.0,07.4,0000.0,0005.56,0001.45,0000.99
2021-11-26 23:15:00,,0825.5,5.01,0.00,30.3,29.5,00.0,39.2,32.0,07.4,0000.0,0005.60,0001.50,0001.05
2021-11-26 23:16:00,,0825.5,5.00,0.00,30.3,29.5,00.0,39.2,32.0,07.4,0000.0,0005.87,0001.57,0001.13
2021-11-26 23:17:00,,0825.5,5.01,0.00,30.3,29.5,00.0,39.2,32.0,07.4,0000.0,0006.07,0001.63,0001.18
2021-11-26 23:18:00,,0825.5,5.02,0.00,30.3,29.5,00.0,39.2,32.0,07.4,0000.0,0006.11,0001.65,0001.22
2021-11-26 23:19:00,,0825.5,4.99,0.00,30.3,29.5,00.0,39.2,32.0,07.4,0000.0,0007.09,0001.72,0001.26
2021-11-26 23:20:00,,0825.5,4.99,0.00,30.4,29.5,00.0,39.2,32.1,07.3,0000.0,0007.79,0001.71,0001.27
2021-11-26 23:21:00,,0825.4,5.01,0.00,30.3,29.1,00.0,39.3,32.0,07.3,0000.0,0006.72,0001.67,0001.24
2021-11-26 23:22:00,,0825.4,5.00,0.00,30.2,27.0,00.0,39.2,31.4,07.3,0000.0,0005.53,0001.56,0001.21
2021-11-26 23:23:00,,0825.4,5.01,0.00,30.1,26.3,00.0,39.2,31.2,07.4,0000.0,0005.50,0001.53,0001.19
2021-11-26 23:24:00,,0825.4,5.00,0.00,30.0,26.6,00.0,39.1,31.3,07.4,0000.0,0005.45,0001.50,0001.15
2021-11-26 23:25:00,,0825.4,5.00,0.00,29.9,27.0,00.0,39.1,31.4,07.4,0000.0,0004.70,0001.45,0001.10
2021-11-26 23:26:00,,0825.4,4.99,0.00,29.9,27.4,00.0,39.0,31.4,07.4,0000.0,0004.62,0001.38,0001.05
2021-11-26 23:27:00,,0825.4,5.01,0.00,29.9,27.7,00.0,39.0,31.4,07.4,0000.0,0004.41,0001.31,0000.98
2021-11-26 23:28:00,,0825.4,4.99,0.00,29.9,28.0,00.0,39.0,31.5,07.4,0000.0,0004.14,0001.26,0000.96
2021-11-26 23:29:00,,0825.4,5.00,0.00,29.8,28.1,00.0,39.0,31.5,07.5,0000.0,0004.22,0001.30,0000.98
2021-11-26 23:30:00,,0825.4,4.99,0.00,29.8,28.3,00.0,38.9,31.5,07.4,0000.0,0003.68,0001.25,0000.96
2021-11-26 23:31:00,,0825.4,5.01,0.00,29.8,28.4,00.0,38.9,31.5,07.4,0000.0,0002.29,0001.19,0000.93
2021-11-26 23:32:00,,0825.4,5.00,0.00,29.9,28.5,00.0,38.9,31.5,07.5,0000.0,0001.73,0001.16,0000.93
2021-11-26 23:33:00,,0825.4,4.99,0.00,29.9,28.6,00.0,38.9,31.5,07.4,0000.0,0001.81,0001.17,0000.93
2021-11-26 23:34:00,,0825.4,5.00,0.00,29.9,28.7,00.0,38.9,31.6,07.4,0000.0,0001.85,0001.18,0000.92
2021-11-26 23:35:00,,0825.3,4.99,0.00,29.9,28.7,00.0,38.9,31.6,07.4,0000.0,0001.89,0001.19,0000.92
2021-11-26 23:36:00,,0825.3,5.01,0.00,29.9,28.8,00.0,38.9,31.5,07.4,0000.0,0001.99,0001.25,0000.96
2021-11-26 23:37:00,,0825.3,5.00,0.00,29.9,28.8,00.0,38.9,31.6,07.4,0000.0,0001.94,0001.27,0000.98
2021-11-26 23:38:00,,0825.3,4.99,0.00,29.9,28.8,00.0,38.9,31.6,07.5,0000.0,0001.94,0001.25,0000.96
2021-11-26 23:39:00,,0825.3,5.02,0.00,29.9,28.9,00.0,38.9,31.6,07.5,0000.0,0002.01,0001.24,0000.93
2021-11-26 23:40:00,,0825.3,4.99,0.00,29.9,28.9,00.0,38.9,31.6,07.5,0000.0,0001.88,0001.15,0000.86
2021-11-26 23:41:00,,0825.3,5.01,0.00,29.9,28.9,00.0,38.9,31.6,07.5,0000.0,0001.89,0001.12,0000.82
2021-11-26 23:42:00,,0825.3,5.00,0.00,29.9,29.0,00.0,38.9,31.6,07.5,0000.0,0002.01,0001.12,0000.80
2021-11-26 23:43:00,,0825.3,5.00,0.00,29.9,29.0,00.0,38.9,31.6,07.5,0000.0,0002.03,0001.11,0000.78
2021-11-26 23:44:00,,0825.3,4.99,0.00,29.9,29.0,00.0,38.9,31.6,07.4,0000.0,0002.02,0001.10,0000.77
2021-11-26 23:45:00,,0825.3,5.01,0.00,30.0,29.0,00.0,38.9,31.6,07.4,0000.0,0001.98,0001.08,0000.77
2021-11-26 23:46:00,,0825.3,5.00,0.00,30.0,29.0,00.0,38.9,31.7,07.4,0000.0,0001.93,0001.06,0000.77
2021-11-26 23:47:00,,0825.2,5.02,0.00,30.0,29.0,00.0,39.0,31.7,07.4,0000.0,0001.78,0000.99,0000.72
2021-11-26 23:48:00,,0825.2,4.99,0.00,30.0,29.0,00.0,39.0,31.6,07.4,0000.0,0001.77,0000.97,0000.69
2021-11-26 23:49:00,,0825.2,5.02,0.00,30.0,29.1,00.0,39.0,31.7,07.4,0000.0,0001.74,0000.96,0000.67
2021-11-26 23:50:00,,0825.3,4.99,0.00,30.0,29.1,00.0,39.0,31.7,07.4,0000.0,0001.85,0001.00,0000.65
2021-11-26 23:51:00,,0825.3,4.99,0.00,30.0,29.1,00.0,39.0,31.7,07.4,0000.0,0003.20,0001.07,0000.65
2021-11-26 23:52:00,,0825.3,5.02,0.00,30.0,29.0,00.0,39.0,31.6,07.5,0000.0,0003.53,0001.08,0000.65
2021-11-26 23:53:00,,0825.3,4.99,0.00,30.0,29.0,00.0,39.0,31.6,07.5,0000.0,0003.54,0001.13,0000.66
2021-11-26 23:54:00,,0825.3,5.01,0.00,30.0,29.0,00.0,39.0,31.6,07.5,0000.0,0003.59,0001.15,0000.68
2021-11-26 23:55:00,,0825.3,5.01,0.00,30.0,29.0,00.0,39.0,31.7,07.4,0000.0,0003.94,0001.21,0000.69
2021-11-26 23:56:00,,0825.3,4.99,0.00,30.0,29.0,00.0,39.0,31.7,07.5,0000.0,0004.27,0001.22,0000.69
2021-11-26 23:57:00,,0825.4,5.01,0.00,30.0,29.0,00.0,39.0,31.7,07.5,0000.0,0004.50,0001.28,0000.71
2021-11-26 23:58:00,,0825.3,4.99,0.00,30.0,29.0,00.0,39.0,31.7,07.5,0000.0,0004.67,0001.35,0000.72
2021-11-26 23:59:00,,0825.3,5.01,0.00,30.0,29.0,00.0,39.0,31.7,07.5,0000.0,0004.69,0001.35,0000.72
